NOAA 17 DEB

Satellite information

Favourite Embed

Satellite Type and Status

DEBRISIN ORBIT

Key statistics

Satellite NOAA 17 DEB at a glance.

Uptime

8474

Days in orbit

Revolutions

≈ 14.5

Per day

Orbit

SSO

Sun Synchronous Orbit

Inclination

98.8

Latest

Satellite identification and parameters

Extended collection of information and parameters for NOAA 17 DEB.

Object identification

Identified? True

Debris? True

Object name: NOAA 17 DEB

International designator: 2002-032Y

Object number (NORAD): 48183

Object ID (CCSDS): 48183

Country: UNITED STATES OF AMERICA (US)

Current information (Y/N): Y

RCS size: SMALL

Orbital parameters

Period: 99.137 minutes

Inclination: 98.7647 deg

SMA: 7095.5 km

Apoapsis: 725.168 km

Periapsis: 709.562 km

RAAN: 228.8863 deg

Eccentricy: 0.00109968

Argument of periapsis: 345.134 deg

Mean anomaly: 14.953 deg

Mean motion: 14.52540516 rev/day

Mean motion (dot): 0.00023346 rev/day2

B* drag term: 0.0057014443 1/REarth

Two-line elements (TLE)

Creation date: Sept. 3, 2025, 2:21 a.m.

Reference frame: TEME

Reference center: EARTH

Epoch: Sept. 2, 2025, 4:43 p.m. UTC

TLE line 0: 0 NOAA 17 DEB

TLE line 1: 1 48183U 02032Y 25245.69668461 .00023346 00000-0 57014-2 0 9992

TLE line 2: 2 48183 98.7647 228.8863 0010997 345.1340 14.9530 14.52540516232013

Live tracking on map

Real-time ground track for satellite NOAA 17 DEB.

In-orbit conjunctions

A list of the most updated potential collisions computed for object NOAA 17 DEB.

Target Orbit TCA Probability of collision Miss distance Type
JAWSAT SSO 2024-10-01 18:31:33 0.00043357 513.0 (m) PAYLOAD
COSMOS 858 LEO 2024-08-15 22:00:59 0.0001505696 894.0 (m) PAYLOAD

Associated space launch

NOAA M carried weather imagers and microwave and infrared sounders, as well as a SARSAT search-and-rescue package. It had an on-orbit mass of 1475 kg.

NOAA 17 DEB was lifted into orbit during the mission ‘Titan II SLV | NOAA 17’, on board a Titan II SLV space rocket.

The launch took place on June 24, 2002, 6:23 p.m. from Space Launch Complex 4W.

For more information about the launch, click the button.

Launch to space Titan II SLV | NOAA 17
Titan II SLV | NOAA 17

Agency: N/A

Status: Launch Successful

Launch date: June 24, 2002, 6:23 p.m. UTC

Rocket: Titan II SLV

Launch pad: Space Launch Complex 4W

Location: Vandenberg SFB, CA, USA

...

Latest news about this satellite

There are no fresh news available about this satellite. Check back as we update our databases every day.


Newsletter sign-up

Weekly statistics, charts and insights to help you stay on top of the space industry.